Tracking 20382 objects as of 24-Feb-2020
HD Live streaming from Space Station
objects crossing your sky now
Track the group of recently launched Starlink satellites

EXPLORER 22

Track EXPLORER 22 now!
10-day predictions
EXPLORER 22 is classified as:


NORAD ID: 899
Int'l Code: 1964-064A
Perigee: 875.5 km
Apogee: 1,051.6 km
Inclination: 79.7 °
Period: 104.2 minutes
Semi major axis: 7334 km
RCS: 1.5662 m2 (large)
Launch date: October 10, 1964
Source: United States (US)
Launch site: AIR FORCE WESTERN TEST RANGE (AFWTR)
aabbcc
Your satellite tracking list
Your tracking list is empty




NASA's NSSDC Master Catalog

Two Line Element Set (TLE):
1   899U 64064A   20055.35012546  .00000065  00000-0  51552-4 0  9997
2   899  79.6907 126.7370 0120045   6.4812 353.7856 13.82120360786919
Source of the keplerian elements: AFSPC